Back to catalog

DTUSAT

AliveAmateur RadioSSO
NORAD 27842·PAYLOAD·🇩🇰 Denmark

Launched Jun 30, 2003 from Plesetsk Cosmodrome

Loading…

Next Passes (next 24 hours)

TLE

FreshSource: Space-Track

Epoch: Sep 14, 2026, 11:28 UTC

1 27842U 03031C   26257.47796585  .00000131  00000-0  76404-4 0  9993
2 27842  98.6884 264.8857 0008065 262.9541  97.0721 14.23963915204528

Track DTUSAT in real time with AllMySat

Download on the App Store